DW7685 Weather Reports


time (UTC)temp
F
wind
direction
speed
knots
gust
knots
rain 1hr
in
rain 24hr
in
rain mn
in
humidity
%
barometer
mb
20260507231308 57 18 0.0 4.3 0.00 0.00 0.00 46 1008.3
20260507230320 58 105 0.0 7.0 0.00 0.00 0.00 43 1008.5
20260507225253 59 88 0.0 3.5 0.00 0.00 0.00 45 1008.4
20260507224235 60 38 0.0 0.0 0.00 0.00 0.00 44 1008.1
20260507223205 61 124 0.0 3.5 0.00 0.00 0.00 41 1008.0
20260507222220 61 109 0.0 2.6 0.00 0.00 0.00 44 1007.7
20260507220106 62 69 0.0 0.0 0.00 0.00 0.00 41 1007.6
20260507215113 63 112 0.0 2.6 0.00 0.00 0.00 42 1007.4
20260507214135 63 105 0.0 1.7 0.00 0.00 0.00 43 1007.3
20260507213132 62 71 0.0 1.7 0.00 0.00 0.00 42 1007.4
20260507212139 64 123 0.0 2.6 0.00 0.00 0.00 41 1007.4
20260507205953 64 38 0.0 0.0 0.00 0.00 0.00 43 1007.2
20260507204922 65 67 0.0 5.2 0.00 0.00 0.00 40 1007.1
20260507203917 65 124 0.0 7.0 0.00 0.00 0.00 39 1007.0
20260507202914 66 108 0.0 0.0 0.00 0.00 0.00 43 1007.0
20260507201906 66 93 0.0 0.0 0.00 0.00 0.00 39 1007.2
20260507200902 65 101 0.0 0.0 0.00 0.00 0.00 41 1007.0
20260507195840 65 71 0.0 2.6 0.00 0.00 0.00 40 1007.0
20260507194815 65 119 0.0 0.0 0.00 0.00 0.00 43 1007.1
20260507193838 66 103 0.0 7.0 0.00 0.00 0.00 42 1007.4
20260507192848 67 69 0.0 8.7 0.00 0.00 0.00 39 1007.3
20260507191825 66 58 0.0 7.0 0.00 0.00 0.00 43 1007.5
20260507190844 66 67 0.0 2.6 0.00 0.00 0.00 42 1007.6
20260507185842 65 63 0.0 3.5 0.00 0.00 0.00 46 1007.7
20260507183658 64 103 0.0 6.1 0.00 0.00 0.00 45 1007.8
20260507180419 63 120 0.0 3.5 0.00 0.00 0.00 46 1008.0
20260507175400 63 17 0.0 4.3 0.00 0.00 0.00 49 1008.2
20260507174408 64 39 0.0 5.2 0.00 0.00 0.00 47 1008.3
20260507172235 63 55 0.9 8.7 0.00 0.00 0.00 51 1008.6
20260507171210 61 27 0.0 4.3 0.00 0.00 0.00 54 1008.8
20260507170205 60 85 0.0 7.0 0.00 0.00 0.00 57 1008.8
20260507164019 59 74 0.0 0.0 0.00 0.00 0.00 61 1009.4
20260507163000 59 68 0.0 0.0 0.00 0.00 0.00 58 1009.5
20260507160826 59 60 0.0 4.3 0.00 0.00 0.00 59 1009.7
20260507155844 58 57 0.0 0.0 0.00 0.00 0.00 58 1009.9
20260507154833 57 70 0.0 0.0 0.00 0.00 0.00 62 1010.0
20260507153759 57 43 0.0 2.6 0.00 0.00 0.00 60 1010.1
20260507152731 57 71 0.0 0.0 0.00 0.00 0.00 62 1010.3
20260507151708 56 71 0.0 1.7 0.00 0.00 0.00 60 1010.2
20260507150646 56 76 0.0 1.7 0.00 0.00 0.00 61 1010.3
20260507145613 55 96 0.0 0.0 0.00 0.00 0.00 62 1010.4
20260507144544 55 96 0.0 0.9 0.00 0.00 0.00 61 1010.6
20260507143603 54 94 0.0 0.0 0.00 0.00 0.00 64 1010.7
20260507141455 52 74 0.0 0.0 0.00 0.00 0.00 67 1010.9
20260507110357 48 95 0.0 0.0 0.00 0.08 0.00 49 1011.0
20260507105418 48 95 0.0 0.0 0.00 0.09 0.00 49 1010.9
20260507104405 48 95 0.0 0.0 0.00 0.09 0.00 52 1010.9
20260507103409 48 95 0.0 0.0 0.00 0.09 0.00 52 1011.0
20260507102433 48 95 0.0 0.0 0.00 0.09 0.00 52 1010.7
20260507100241 48 95 0.0 0.0 0.00 0.09 0.00 54 1010.3
20260507095259 48 95 0.0 0.0 0.00 0.09 0.00 56 1010.2
20260507094312 48 95 0.0 0.0 0.00 0.09 0.00 54 1010.4
20260507093255 48 95 0.0 0.0 0.00 0.09 0.00 52 1010.4
20260507092228 48 95 0.0 0.0 0.00 0.09 0.00 52 1010.2
20260507091240 48 95 0.0 0.0 0.00 0.09 0.00 54 1010.3
20260507090242 48 95 0.0 0.0 0.00 0.09 0.00 56 1010.0
20260507083017 48 94 0.0 0.0 0.00 0.09 0.00 54 1010.3
20260507082028 48 94 0.0 0.0 0.00 0.09 0.00 53 1010.1
20260507081003 48 94 0.0 0.0 0.00 0.09 0.00 56 1010.1
20260507080003 48 94 0.0 0.0 0.00 0.09 0.00 56 1010.4
20260507074947 48 94 0.0 0.0 0.00 0.09 0.00 56 1010.4
20260507074008 48 94 0.0 0.0 0.00 0.09 0.00 56 1010.1
20260507072935 48 93 0.0 0.0 0.00 0.09 0.00 56 1010.0
20260507065629 48 92 0.0 0.0 0.00 0.09 0.00 46 1009.9
20260507064647 48 92 0.0 3.5 0.00 0.09 0.00 47 1010.0
20260507062551 48 92 0.0 0.0 0.00 0.09 0.00 39 1010.2
20260507061613 48 92 0.0 0.0 0.00 0.09 0.00 40 1010.4
20260507060601 49 90 0.0 0.0 0.00 0.09 0.00 38 1010.3
20260507055607 49 88 0.0 0.0 0.00 0.09 0.00 35 1010.5
20260507054544 49 126 0.0 2.6 0.00 0.09 0.00 35 1010.6
20260507053519 49 131 0.0 2.6 0.00 0.09 0.00 33 1010.6
20260507052507 50 131 0.0 4.3 0.00 0.09 0.00 33 1010.3
20260507051458 50 130 0.0 0.0 0.00 0.09 0.00 36 1010.2
20260507050509 50 130 0.0 0.0 0.00 0.09 0.00 36 1010.2
20260507045454 50 130 0.0 3.5 0.00 0.09 0.00 38 1009.9
20260507044501 51 130 0.0 3.5 0.00 0.09 0.00 36 1009.8
20260507043454 51 136 0.0 4.3 0.00 0.09 0.00 34 1010.0
20260507042443 52 128 0.0 0.0 0.00 0.09 0.00 30 1009.8
20260507041439 52 140 0.0 3.5 0.00 0.09 0.00 30 1009.6
20260507040504 52 170 0.0 0.0 0.00 0.09 0.00 31 1009.3
20260507035516 53 133 0.0 0.0 0.00 0.09 0.09 30 1009.5
20260507034450 53 133 0.0 3.5 0.00 0.09 0.09 33 1009.9
20260507033428 53 142 0.0 0.0 0.00 0.09 0.09 34 1009.3
20260507032446 53 130 0.0 2.6 0.00 0.09 0.09 35 1009.7
20260507031446 54 139 0.0 0.0 0.00 0.09 0.09 34 1009.7
20260507030455 54 139 0.0 0.0 0.00 0.09 0.09 34 1009.9
20260507025445 54 139 0.0 2.6 0.00 0.09 0.09 35 1009.8
20260507024410 55 235 0.0 0.0 0.00 0.09 0.09 33 1009.0
20260507023427 55 243 0.0 0.0 0.00 0.09 0.09 32 1009.3
20260507021240 55 103 0.0 1.7 0.00 0.09 0.09 34 1009.8
20260507020228 55 103 0.0 1.7 0.00 0.09 0.09 32 1009.2
20260507015159 56 103 0.0 0.0 0.00 0.09 0.09 33 1008.4
20260507014129 56 103 0.0 0.0 0.00 0.09 0.09 34 1008.6
20260507013056 56 103 0.0 2.6 0.00 0.09 0.09 33 1009.0
20260507012113 57 101 0.0 0.0 0.00 0.09 0.09 32 1008.9
20260507011044 57 101 0.0 0.0 0.00 0.09 0.09 36 1008.6
20260507010046 57 101 0.0 0.0 0.00 0.09 0.09 38 1008.1
20260507005037 58 101 0.0 0.0 0.00 0.09 0.09 41 1008.6
20260507004014 58 101 0.0 0.0 0.00 0.09 0.09 39 1008.6
20260507003018 58 101 0.0 0.9 0.00 0.09 0.09 41 1008.6
20260507002027 58 96 0.0 0.0 0.00 0.09 0.09 39 1008.7
20260507001017 59 96 0.0 0.0 0.00 0.09 0.09 42 1008.3
20260506234855 60 96 0.0 0.0 0.00 0.09 0.09 47 1008.4
20260506233821 60 96 0.0 0.0 0.00 0.09 0.09 49 1008.3
20260506232826 61 96 0.0 0.0 0.00 0.09 0.09 50 1008.2
20260506231813 61 96 0.0 0.0 0.00 0.09 0.09 50 1007.8